Temp_Advection
nan nan nan nan nan nan nan nan nan nan nan nan nan nan nan nan nan nan nan nan nan nan nan nan nan nan nan nan nan nan nan nan nan nan nan nan nan nan nan nan nan nan nan nan
nan 1 0 -1 -0 1 1 0 -0 0 -1 -1 -1 -0 -0 -0 0 0 -0 -0 -0 0 -0 0 0 0 0 0 0 0 -0 0 0 -0 -0 -0 0 0 0 -0 0 0 -0 nan
nan -0 -0 -0 2 -0 -0 0 1 1 2 0 -0 -1 -2 -1 0 1 0 -0 -0 0 0 0 0 0 0 0 -0 0 0 -0 0 -0 -0 -0 -0 0 0 0 -0 -0 0 nan
nan -0 -0 1 0 -0 -1 -0 -0 -0 0 -1 -3 -1 -0 -0 1 0 0 -0 -0 -0 -0 0 1 0 0 0 -0 -0 0 0 0 -0 -0 -0 -0 -0 0 0 0 0 1 nan
nan -0 -1 0 -0 -0 0 0 -0 -0 -1 -3 0 -0 -1 -1 1 1 0 -0 -1 -1 -0 -0 0 0 0 0 -0 -0 -0 0 0 0 -0 -0 -0 -0 0 1 -0 0 1 nan
nan -0 -1 0 -0 -0 -0 -0 -0 -1 -0 -1 -1 0 -0 -1 0 -0 0 1 -0 -0 0 -0 -0 1 -0 -1 -0 -0 0 -0 0 1 0 0 0 -0 -0 1 0 -0 0 nan
nan 0 -0 -1 0 -0 0 -0 -0 0 0 1 -0 -1 0 -0 -0 0 0 1 1 0 1 2 1 1 0 -1 -0 -0 -0 0 0 0 0 0 0 1 0 0 0 -0 -1 nan
nan -0 -1 -0 0 -0 -0 -0 0 0 -0 0 1 -0 -1 -0 0 1 0 1 1 -0 0 2 2 1 0 1 -0 -0 -1 -0 1 0 -0 0 0 0 0 0 0 -0 -0 nan
nan -1 -0 -1 -0 0 0 0 -0 0 0 -0 -1 0 0 -0 0 0 0 -0 0 -1 -2 1 3 1 -1 -0 1 -0 -1 -1 1 0 -1 -0 1 1 0 -0 0 -0 -0 nan
nan -0 -1 -0 1 1 0 -0 0 -0 -0 1 0 -0 -0 -1 -0 -0 0 0 -0 -1 -2 -1 2 2 0 -0 0 -0 -1 -1 -0 0 -0 -0 0 1 1 -0 0 -0 -1 nan
nan -1 0 0 -0 -0 -0 -0 -0 0 0 0 1 0 -0 -1 -1 -1 -1 0 1 -0 -1 -1 0 2 1 0 0 -0 -0 -0 -1 0 0 -1 -0 1 1 -0 -0 -0 -0 nan
nan 0 1 0 0 -0 0 0 0 -0 -0 -0 -0 0 0 -0 -1 -1 -1 -0 0 -0 -1 -1 0 0 1 1 0 -0 -0 -0 -1 -0 0 0 -1 -2 1 2 -1 -1 -0 nan
nan -0 0 0 0 0 -0 -0 0 0 -0 -0 -0 -0 -0 -0 -0 -0 -0 -1 -0 -0 -1 -1 -0 0 0 0 1 1 0 -0 -1 0 0 -0 0 0 -3 -0 1 -0 0 nan
nan 0 0 -0 -0 0 0 -0 -0 -0 -0 0 -0 -0 -1 -1 -1 -1 -1 -0 -0 -0 -1 -1 -0 -0 -0 0 0 0 0 0 -0 -0 0 0 0 1 1 -1 -1 -1 1 nan
nan -0 -0 0 -0 -0 -0 0 -0 -0 -0 -0 -0 0 -0 -0 -1 -1 -1 -0 -0 -0 -1 -0 -1 -0 -0 -0 0 0 -0 -0 0 -0 0 0 -0 -0 1 1 -1 -2 -1 nan
nan -0 0 0 0 -0 -0 -0 0 0 -0 -0 -1 -0 0 0 -0 -1 -1 0 0 -0 -0 -0 -0 -0 -0 -0 -0 -0 -0 0 0 0 -0 -0 0 0 -0 -0 -0 -0 -1 nan
nan -1 0 0 0 0 0 -0 -0 0 0 -0 -0 -0 -1 -0 -0 -0 -0 -0 0 0 0 -0 -0 -0 -0 -0 -0 -0 -0 -0 -0 -0 0 0 0 -0 0 0 -0 -0 -0 nan
nan 0 0 1 1 1 -0 -0 -0 0 0 0 -0 -0 -1 -1 -1 -1 -1 -0 -0 -0 0 0 -0 -0 0 -0 -0 -0 -0 -0 -0 -0 -0 0 0 0 -0 0 -0 -0 -0 nan
nan -0 -0 0 0 0 0 0 -0 0 0 0 0 -0 -0 -1 -1 -1 -1 -1 -0 -0 -0 0 -0 -0 -0 0 0 -0 -0 -0 -0 -0 -0 -0 0 0 0 -0 0 -0 -1 nan
nan -0 -0 -0 -0 0 -0 -1 -0 0 0 -0 -0 0 -0 -0 -0 -0 -0 -1 -0 0 -0 -0 -0 -0 -0 0 0 -0 -0 -0 -0 -0 -0 -0 -0 -0 -0 -0 0 -0 -0 nan
nan 0 0 -0 -1 0 1 0 -0 -1 -0 0 -0 -1 -0 -0 -0 -0 -0 -0 -0 0 -0 -0 -0 -0 -0 -0 0 -0 -0 -0 -0 -0 -0 0 -0 0 0 -0 -0 -0 -0 nan
nan -0 -0 -0 -1 -0 0 0 0 -0 -1 -1 -0 -0 -1 -0 -0 -0 -0 0 -0 -0 -0 -0 -0 -0 -0 -0 -0 -0 -0 -0 -0 -0 0 -0 0 0 0 -0 -0 -0 -0 nan
nan -0 -0 -1 -1 -1 -0 -0 -0 -0 -0 -1 -0 -0 -0 -0 -0 0 -0 -0 0 -0 -0 0 -0 -0 -0 -0 -0 -0 -0 -0 -0 -0 -0 -0 0 0 0 -0 -0 -0 -0 nan
nan -1 -0 -0 -1 -1 -1 -1 -0 -0 -1 -1 -1 -0 -0 -0 -0 0 0 -0 0 0 0 0 0 0 -0 -0 -0 -0 -0 -0 -0 -0 -0 0 0 -0 0 -0 -0 -0 -0 nan
nan -1 -1 -1 -1 -1 -1 -1 -1 -1 -1 -1 -1 -1 -0 -0 0 0 0 0 0 0 -0 0 0 0 0 -0 -0 -0 -0 -0 0 -0 -0 -0 -0 0 0 0 -0 -0 -0 nan
nan -1 -1 -1 -0 -1 -0 -1 -1 -1 -0 -1 -2 -1 -1 -1 -0 -0 0 0 0 0 -0 -0 -0 -0 -0 -0 -0 -0 -0 -0 -0 -0 -0 -0 -0 -0 0 -0 -0 -0 -0 nan
nan nan nan nan nan nan nan nan nan nan nan nan nan nan nan nan nan nan nan nan nan nan nan nan nan nan nan nan nan nan nan nan nan nan nan nan nan nan nan nan nan nan nan nan
Wind_Speed
12 10 5 9 17 11 13 17 9 20 11 13 7 6 25 24 29 32 30 25 32 37 37 38 36 35 34 34 33 33 34 33 32 30 30 31 31 29 27 27 27 24 24 24
4 13 4 8 20 9 14 19 18 25 28 21 33 24 21 24 30 30 27 27 37 36 36 37 35 34 35 34 33 34 33 33 32 31 31 31 31 30 29 29 28 27 26 25
4 3 6 11 12 8 5 5 7 6 13 2 4 10 15 27 31 25 22 34 36 36 36 36 34 33 34 34 34 34 35 33 32 32 33 32 31 32 32 30 29 29 29 27
4 4 4 7 3 6 12 6 14 9 7 8 16 21 21 24 20 20 31 35 35 36 35 35 33 32 34 34 33 34 35 34 33 34 34 34 34 34 32 31 31 30 29 27
3 3 8 8 2 6 7 8 8 9 9 19 19 17 12 14 13 29 31 32 33 34 33 34 31 30 34 34 34 34 34 34 34 35 35 35 36 35 33 32 32 32 31 30
2 3 6 6 2 3 5 5 5 11 3 8 17 9 6 12 30 29 29 30 33 33 33 32 29 29 33 34 35 34 34 35 36 36 36 37 36 35 33 33 34 31 31 29
9 6 10 10 5 6 2 5 5 2 10 12 6 16 28 30 28 28 31 34 35 35 35 32 28 28 33 35 35 32 34 36 37 37 37 36 36 36 35 33 32 33 32 32
4 6 9 11 6 6 2 8 6 8 14 16 21 25 26 28 31 33 35 38 37 38 39 36 29 28 33 35 33 33 35 36 37 38 36 36 36 35 32 32 34 34 34 35
11 8 5 14 6 3 9 6 3 8 12 16 21 24 28 34 37 39 40 43 42 40 41 41 33 27 33 34 33 33 35 37 37 38 37 36 34 35 34 34 33 34 34 35
2 4 14 16 15 8 2 5 13 12 14 18 24 30 34 36 39 41 42 43 43 42 43 44 39 32 31 32 31 33 35 37 36 38 38 36 34 34 35 35 36 35 33 31
8 14 17 1 3 5 12 12 12 16 23 27 29 33 37 41 43 43 42 45 45 44 44 45 40 36 31 29 29 32 34 36 36 36 37 38 36 37 35 34 35 37 39 38
14 18 6 0 5 7 8 13 17 23 29 29 30 34 37 40 43 43 45 46 47 46 45 46 40 36 32 26 27 30 33 35 35 34 37 37 39 41 39 32 33 33 34 35
15 11 10 4 1 10 15 19 23 26 28 33 36 39 40 41 45 45 45 46 47 48 47 47 41 37 31 27 26 28 31 33 34 34 37 37 39 39 41 45 33 32 31 30
25 9 4 4 12 12 18 23 26 30 32 36 38 41 42 45 50 50 50 49 49 47 48 45 38 33 28 26 26 28 29 31 31 35 35 39 39 41 40 38 41 41 34 31
3 2 6 9 14 18 23 25 30 34 38 40 42 46 47 44 48 50 48 47 48 44 48 40 32 28 24 24 25 27 29 29 32 33 37 35 35 36 34 35 36 38 39 35
11 9 11 14 16 22 28 32 35 39 41 43 47 51 47 43 46 49 48 45 44 44 43 35 27 22 22 22 24 26 27 27 31 34 35 35 33 33 33 34 36 38 38 37
16 17 22 22 22 28 34 37 39 41 41 46 48 45 44 45 47 45 47 43 40 40 37 26 23 19 20 21 22 25 25 31 33 33 32 31 31 31 33 35 35 36 35 34
18 24 25 29 32 34 38 40 40 40 45 45 45 40 39 37 39 45 42 39 38 39 29 21 19 17 18 20 20 22 27 31 31 31 30 30 29 31 30 31 33 33 35 35
19 23 27 31 30 32 37 38 41 46 44 42 42 42 39 37 38 37 37 36 37 34 23 18 17 16 19 16 19 23 28 29 30 30 29 28 28 28 30 30 31 32 34 32
19 20 20 22 27 33 37 42 43 42 40 39 38 39 38 37 36 37 35 33 28 21 16 16 16 18 15 17 19 26 27 27 28 29 29 28 28 30 30 30 30 33 34 31
21 20 22 29 37 40 40 38 38 39 38 36 34 34 35 36 36 35 34 30 22 15 15 15 16 17 15 18 25 24 24 25 27 28 28 29 30 30 31 32 32 35 33 31
20 26 33 36 38 42 38 36 34 34 35 35 32 31 32 34 35 33 29 23 17 14 14 16 18 15 19 23 21 22 22 24 25 26 27 28 30 31 33 34 35 35 33 31
30 33 34 34 34 36 35 33 33 32 33 30 30 29 30 33 33 32 27 16 14 14 15 16 16 15 18 18 19 20 21 24 25 26 27 29 29 30 33 36 36 35 34 32
32 32 31 29 30 32 34 34 33 32 29 29 28 27 28 33 31 24 18 13 11 13 15 15 15 15 17 17 17 18 21 24 24 25 29 29 29 30 33 37 37 36 33 32
27 26 26 28 30 31 31 33 33 32 33 31 31 28 27 28 24 21 13 11 11 12 13 14 14 14 15 15 16 18 20 23 26 26 29 30 30 32 34 37 37 36 34 33
23 24 25 25 26 28 30 31 31 33 30 32 35 26 28 30 20 15 11 10 11 12 13 13 13 13 14 14 15 17 19 21 25 28 29 29 31 33 35 36 38 38 37 35
20 21 24 26 26 27 28 26 29 32 34 35 31 29 26 22 16 14 11 9 10 12 12 12 13 13 13 13 15 16 18 20 23 27 28 30 32 34 37 36 37 37 38 37
Wind_Direction
268 281 216 252 260 218 205 239 218 269 228 255 249 261 296 296 299 304 312 327 329 330 331 331 331 330 325 322 321 320 320 319 318 316 314 313 313 312 309 305 303 297 291 283
257 264 255 259 260 239 218 240 254 259 273 271 277 277 271 284 304 308 318 323 326 328 327 328 327 325 323 322 322 320 318 318 317 316 315 315 315 313 310 308 305 300 294 287
257 9 308 282 258 172 187 216 170 179 233 173 276 258 279 308 305 308 314 320 324 325 324 324 324 324 320 319 321 318 316 317 316 316 316 317 316 314 312 308 304 299 292 286
283 345 240 246 204 176 197 222 212 275 258 227 269 296 303 308 300 311 317 320 323 323 321 322 323 321 313 316 318 317 316 315 316 316 317 317 315 314 312 308 301 296 289 281
244 219 299 281 223 159 169 265 214 223 268 283 299 308 293 308 301 312 316 320 321 322 319 318 321 316 310 313 315 315 315 313 314 315 316 316 314 313 311 306 302 298 293 287
92 236 257 231 135 141 119 291 196 186 225 301 327 304 289 292 311 316 321 323 325 327 318 316 319 311 306 309 310 315 311 311 312 314 315 315 314 311 309 306 302 299 294 288
223 256 279 257 174 134 100 290 161 223 289 291 240 263 295 307 316 323 328 332 334 329 319 317 313 306 301 305 310 310 308 308 310 313 314 314 313 312 311 307 303 298 294 292
183 222 271 176 120 175 360 318 320 298 292 290 295 302 312 320 324 327 328 331 333 330 326 322 313 302 299 302 311 307 307 308 310 313 315 315 312 311 309 308 305 302 298 294
194 213 259 198 223 162 277 252 320 304 320 314 304 314 323 325 327 327 326 326 327 328 324 320 314 301 298 308 306 305 304 308 311 313 316 315 314 312 306 305 295 289 287 284
172 222 270 290 277 281 217 356 325 330 318 326 324 330 323 317 314 315 318 320 324 326 324 319 315 303 299 304 304 302 304 307 312 316 317 317 314 311 306 302 300 288 283 277
256 274 291 278 73 331 340 339 329 339 333 320 316 316 319 319 316 315 316 319 321 322 322 318 314 305 303 305 303 301 304 307 313 316 317 318 316 314 303 300 293 289 287 284
270 292 264 213 300 328 328 322 315 307 311 313 313 313 317 317 317 315 314 317 320 321 319 317 313 305 303 306 302 301 304 309 314 316 317 317 314 316 316 297 292 288 283 278
261 294 283 210 328 318 307 320 318 313 314 316 316 314 314 317 316 314 314 318 320 320 318 316 313 304 306 307 301 303 306 310 314 319 316 315 317 309 305 316 304 297 297 286
289 285 187 282 311 320 317 322 318 310 308 313 317 319 317 315 316 316 317 320 320 318 317 315 310 303 308 304 304 306 310 314 314 318 320 318 310 308 307 301 311 314 315 307
136 262 306 319 321 316 317 315 319 320 321 319 319 321 320 315 311 312 316 318 317 317 319 316 306 305 310 305 308 311 316 318 320 321 312 306 309 311 313 313 311 314 316 313
267 266 256 283 314 329 332 329 321 319 321 321 321 321 319 313 309 312 315 319 319 319 319 313 307 313 309 311 314 315 321 321 321 315 317 317 317 319 318 318 315 312 308 310
263 245 264 264 291 321 328 326 321 317 317 317 318 314 313 314 314 312 314 318 318 318 318 311 310 310 310 317 318 320 322 326 325 320 322 323 322 323 324 320 313 313 314 316
288 284 284 290 292 302 315 317 316 315 315 317 315 313 311 311 310 313 314 318 319 320 322 317 316 316 320 320 318 324 324 323 326 327 328 330 329 327 326 327 323 323 323 320
305 302 298 298 302 308 309 312 315 316 318 319 317 314 315 317 317 321 322 320 322 323 328 323 319 322 325 327 324 324 325 326 329 332 334 335 336 336 336 334 333 333 328 327
309 307 302 305 307 311 313 316 318 318 319 319 318 318 318 321 325 324 326 322 322 324 329 325 326 326 329 334 328 326 328 330 332 337 339 341 341 341 342 344 343 340 335 335
316 310 313 315 315 316 320 321 319 319 321 321 322 320 321 325 329 327 326 322 329 328 326 318 325 332 341 339 322 326 334 336 340 341 343 347 348 349 349 350 350 343 343 342
312 315 318 320 319 317 322 323 323 323 324 325 326 324 326 327 326 327 327 323 328 333 328 327 329 342 336 317 328 336 340 344 346 349 352 355 354 355 357 357 352 348 351 349
314 317 318 319 321 321 322 326 328 328 328 329 327 329 331 330 327 327 326 333 334 329 319 328 333 335 327 333 338 344 348 350 350 355 359 0 358 2 3 1 353 357 355 356
314 318 321 324 324 326 329 332 329 329 330 330 330 332 335 330 330 328 323 322 322 324 324 332 335 337 337 341 346 352 356 356 356 359 4 6 6 10 10 4 1 360 1 3
318 322 326 330 333 333 332 333 331 336 334 330 332 335 340 336 329 324 322 328 329 328 335 339 338 342 345 347 353 359 358 1 4 2 7 8 10 13 14 9 6 3 6 7
325 330 335 335 337 334 333 334 337 330 332 328 328 334 342 336 330 326 325 329 331 334 336 339 343 348 349 351 356 357 360 2 6 8 8 10 14 15 16 10 11 13 12 11
329 336 336 338 340 336 336 334 328 335 335 327 327 333 330 336 332 328 323 325 332 334 337 343 345 349 351 353 354 357 2 4 6 12 9 12 13 16 20 15 12 18 17 17
Height
1558 1554 1559 1553 1546 1554 1554 1536 1546 1500 1521 1503 1508 1505 1500 1497 1494 1491 1487 1483 1479 1473 1467 1462 1456 1451 1446 1441 1437 1432 1427 1422 1419 1415 1410 1406 1402 1399 1396 1393 1390 1388 1387 1386
1561 1547 1556 1552 1532 1538 1543 1535 1531 1518 1508 1500 1497 1498 1496 1493 1488 1483 1480 1477 1472 1466 1460 1455 1449 1444 1437 1433 1429 1425 1420 1415 1412 1407 1403 1399 1395 1391 1388 1384 1382 1380 1378 1377
1542 1552 1545 1531 1502 1524 1531 1529 1520 1528 1497 1494 1494 1493 1490 1485 1482 1477 1474 1470 1464 1458 1453 1448 1442 1437 1430 1426 1422 1418 1413 1409 1405 1400 1395 1391 1387 1383 1379 1376 1374 1371 1369 1368
1550 1554 1544 1501 1502 1503 1504 1507 1506 1498 1491 1489 1487 1485 1484 1481 1476 1473 1470 1463 1457 1451 1446 1441 1436 1431 1425 1420 1416 1411 1406 1401 1397 1392 1387 1383 1379 1375 1371 1368 1365 1362 1359 1359
1559 1559 1520 1499 1499 1501 1500 1493 1485 1489 1488 1485 1484 1481 1476 1473 1473 1470 1464 1459 1453 1446 1439 1435 1429 1424 1418 1413 1408 1404 1400 1394 1390 1385 1379 1375 1370 1366 1362 1358 1355 1352 1350 1348
1566 1558 1528 1491 1487 1490 1492 1500 1479 1481 1482 1483 1482 1483 1473 1470 1468 1463 1458 1453 1446 1439 1432 1427 1423 1417 1410 1406 1401 1396 1392 1387 1382 1377 1372 1366 1362 1357 1353 1349 1344 1342 1339 1338
1544 1540 1518 1487 1485 1489 1502 1486 1478 1481 1481 1479 1480 1476 1467 1464 1460 1455 1449 1443 1437 1432 1425 1419 1415 1410 1403 1399 1394 1389 1384 1379 1373 1369 1363 1357 1352 1348 1343 1339 1335 1332 1329 1327
1547 1541 1516 1480 1487 1486 1483 1481 1476 1475 1475 1472 1472 1468 1463 1457 1451 1446 1440 1435 1431 1424 1417 1411 1407 1402 1395 1390 1386 1380 1376 1370 1365 1360 1354 1348 1343 1338 1335 1331 1326 1322 1319 1315
1510 1496 1478 1476 1474 1476 1479 1477 1472 1472 1473 1471 1466 1460 1455 1448 1444 1439 1433 1428 1423 1417 1409 1403 1399 1394 1386 1382 1377 1372 1367 1361 1355 1351 1346 1340 1334 1328 1325 1322 1318 1314 1310 1306
1491 1477 1473 1473 1473 1474 1475 1470 1470 1469 1466 1464 1458 1453 1448 1442 1436 1430 1425 1419 1414 1407 1401 1393 1388 1384 1380 1375 1370 1363 1357 1352 1346 1341 1336 1330 1326 1321 1316 1311 1307 1304 1300 1297
1478 1472 1471 1472 1471 1470 1469 1469 1467 1465 1462 1457 1452 1447 1442 1436 1429 1423 1416 1410 1405 1399 1392 1384 1379 1374 1371 1367 1362 1356 1350 1344 1338 1332 1327 1320 1316 1311 1306 1302 1299 1294 1289 1286
1467 1467 1468 1468 1467 1468 1468 1466 1464 1459 1454 1451 1447 1442 1436 1430 1423 1415 1408 1402 1395 1389 1382 1375 1369 1364 1361 1358 1354 1348 1342 1337 1331 1324 1319 1313 1306 1298 1294 1292 1287 1283 1278 1275
1465 1464 1465 1465 1465 1464 1462 1460 1457 1452 1449 1444 1439 1433 1427 1421 1415 1407 1399 1393 1386 1379 1371 1364 1359 1354 1352 1349 1345 1341 1335 1329 1323 1317 1311 1305 1298 1292 1283 1272 1274 1269 1264 1261
1463 1462 1463 1462 1461 1460 1457 1454 1450 1446 1442 1437 1430 1424 1419 1411 1403 1395 1387 1382 1375 1368 1361 1355 1349 1344 1343 1339 1336 1332 1328 1323 1317 1310 1303 1297 1291 1284 1278 1271 1260 1252 1252 1249
1460 1460 1458 1457 1456 1453 1451 1447 1442 1437 1432 1426 1420 1413 1407 1400 1392 1385 1379 1373 1367 1359 1351 1345 1339 1336 1335 1332 1328 1324 1320 1314 1309 1302 1297 1292 1285 1277 1269 1262 1255 1246 1240 1237
1457 1456 1455 1452 1449 1446 1443 1439 1435 1430 1424 1418 1411 1403 1397 1392 1384 1376 1368 1364 1357 1349 1343 1336 1331 1330 1328 1325 1321 1317 1313 1309 1303 1297 1289 1282 1275 1268 1261 1254 1247 1241 1234 1227
1455 1453 1449 1446 1443 1439 1436 1433 1429 1423 1417 1410 1402 1395 1389 1382 1373 1366 1359 1355 1349 1342 1335 1329 1325 1324 1321 1318 1315 1311 1306 1301 1296 1289 1282 1275 1267 1260 1254 1247 1240 1233 1226 1220
1451 1448 1445 1441 1438 1434 1429 1426 1421 1414 1408 1400 1393 1386 1380 1374 1367 1358 1352 1346 1340 1333 1328 1324 1321 1319 1316 1314 1310 1306 1301 1296 1290 1283 1275 1268 1261 1255 1248 1240 1233 1226 1217 1210
1448 1444 1441 1437 1433 1429 1423 1418 1412 1404 1397 1390 1382 1375 1371 1365 1359 1352 1344 1338 1332 1325 1322 1319 1317 1315 1312 1310 1306 1302 1296 1290 1284 1277 1270 1263 1256 1249 1242 1234 1227 1219 1211 1203
1441 1438 1434 1430 1426 1422 1415 1410 1402 1394 1389 1381 1374 1367 1361 1357 1351 1344 1338 1332 1327 1322 1318 1316 1314 1311 1309 1306 1301 1297 1292 1286 1279 1272 1265 1258 1251 1244 1236 1229 1221 1213 1205 1197
1432 1429 1426 1423 1417 1411 1406 1400 1393 1385 1379 1373 1368 1361 1355 1349 1344 1338 1332 1326 1322 1318 1316 1314 1311 1309 1306 1302 1298 1293 1288 1282 1276 1269 1262 1254 1247 1239 1232 1224 1216 1208 1200 1192
1425 1422 1418 1413 1407 1400 1396 1391 1385 1378 1372 1365 1360 1356 1350 1344 1338 1333 1329 1323 1318 1316 1314 1311 1309 1307 1305 1299 1294 1290 1285 1279 1274 1267 1260 1252 1244 1237 1228 1220 1212 1204 1196 1188
1419 1415 1410 1405 1399 1393 1387 1383 1377 1372 1365 1360 1355 1350 1345 1339 1334 1328 1323 1320 1317 1314 1312 1310 1307 1305 1302 1296 1292 1288 1283 1278 1272 1266 1258 1251 1244 1236 1227 1218 1211 1202 1193 1185
1412 1408 1403 1398 1393 1387 1379 1375 1370 1366 1361 1355 1351 1346 1340 1334 1329 1325 1321 1318 1315 1313 1311 1308 1305 1302 1299 1295 1291 1287 1282 1277 1272 1265 1258 1251 1243 1235 1227 1218 1210 1202 1193 1184
1406 1401 1397 1392 1386 1380 1375 1370 1364 1359 1355 1349 1345 1340 1336 1332 1327 1322 1318 1316 1314 1311 1309 1307 1304 1301 1298 1294 1291 1287 1282 1277 1271 1265 1257 1251 1243 1235 1227 1219 1211 1202 1193 1185
1400 1396 1392 1388 1383 1377 1372 1366 1361 1356 1350 1345 1339 1335 1331 1328 1323 1319 1317 1314 1312 1310 1308 1306 1303 1300 1297 1294 1290 1287 1282 1278 1272 1265 1259 1252 1244 1236 1227 1220 1213 1204 1195 1187
1396 1392 1388 1383 1379 1374 1369 1364 1359 1351 1347 1342 1335 1332 1328 1324 1321 1318 1315 1313 1311 1309 1307 1305 1302 1299 1297 1294 1291 1287 1283 1278 1273 1266 1260 1253 1246 1238 1229 1223 1216 1207 1198 1190